Time,TemperatureF,DewpointF,PressureIn,WindDirection,WindDirectionDegrees,WindSpeedMPH,WindSpeedGustMPH,Humidity,HourlyPrecipIn,Conditions,Clouds,dailyrainin,SoftwareType,DateUTC
2013-02-07 00:00:00,60.8,57.5,30.07,NE,45,0.0,0.0,89,0.00,BKN,,0.00,WeatherDisplay:10.37,2013-02-07 05:00:00,
2013-02-07 00:05:00,60.8,57.5,30.07,NE,45,0.0,0.0,89,0.00,BKN,,0.00,WeatherDisplay:10.37,2013-02-07 05:05:00,
2013-02-07 00:10:00,60.6,57.4,30.07,NE,45,0.0,0.0,89,0.00,BKN,,0.00,WeatherDisplay:10.37,2013-02-07 05:10:00,
2013-02-07 00:15:00,60.6,57.7,30.06,NE,45,0.0,0.0,90,0.00,BKN,,0.00,WeatherDisplay:10.37,2013-02-07 05:15:00,
2013-02-07 00:20:00,60.6,57.7,30.06,NE,45,0.0,0.0,90,0.00,BKN,,0.00,WeatherDisplay:10.37,2013-02-07 05:20:00,
2013-02-07 00:25:00,60.6,57.7,30.06,NE,45,0.0,0.0,90,0.00,BKN,,0.00,WeatherDisplay:10.37,2013-02-07 05:25:00,
2013-02-07 00:30:00,60.6,57.7,30.06,NE,45,0.0,0.0,90,0.00,BKN,,0.00,WeatherDisplay:10.37,2013-02-07 05:30:00,
2013-02-07 00:35:00,60.6,57.7,30.06,NE,45,0.0,0.0,90,0.00,BKN,,0.00,WeatherDisplay:10.37,2013-02-07 05:35:00,
2013-02-07 00:40:00,60.4,57.5,30.06,NE,45,0.0,0.0,90,0.00,BKN,,0.00,WeatherDisplay:10.37,2013-02-07 05:40:00,
2013-02-07 00:45:00,60.4,57.5,30.06,NE,45,0.0,0.0,90,0.00,BKN,,0.00,WeatherDisplay:10.37,2013-02-07 05:45:00,
2013-02-07 00:50:00,60.4,57.8,30.05,NE,45,0.0,0.0,91,0.00,BKN,,0.00,WeatherDisplay:10.37,2013-02-07 05:50:00,
2013-02-07 00:55:00,60.4,57.8,30.05,NE,45,0.0,0.0,91,0.00,BKN,,0.00,WeatherDisplay:10.37,2013-02-07 05:55:00,
2013-02-07 01:00:00,60.4,57.8,30.05,NE,45,0.0,0.0,91,0.00,BKN,,0.00,WeatherDisplay:10.37,2013-02-07 06:00:00,
2013-02-07 01:05:00,60.4,57.8,30.05,NE,45,0.0,0.0,91,0.00,BKN,,0.00,WeatherDisplay:10.37,2013-02-07 06:05:00,
2013-02-07 01:10:00,60.3,57.6,30.05,NE,45,0.0,0.0,91,0.00,BKN,,0.00,WeatherDisplay:10.37,2013-02-07 06:10:00,
2013-02-07 01:15:00,60.3,57.6,30.05,NE,45,0.0,0.0,91,0.00,BKN,,0.00,WeatherDisplay:10.37,2013-02-07 06:15:00,
2013-02-07 01:20:00,60.4,58.1,30.05,NE,45,0.0,0.0,92,0.00,BKN,,0.00,WeatherDisplay:10.37,2013-02-07 06:20:00,
2013-02-07 01:25:00,60.4,58.1,30.05,NE,45,0.0,0.0,92,0.00,BKN,,0.00,WeatherDisplay:10.37,2013-02-07 06:25:00,
2013-02-07 01:30:00,60.3,57.9,30.05,NE,45,0.0,0.0,92,0.00,BKN,,0.00,WeatherDisplay:10.37,2013-02-07 06:30:00,
2013-02-07 01:35:00,60.3,57.9,30.05,NE,45,0.0,0.0,92,0.00,BKN,,0.00,WeatherDisplay:10.37,2013-02-07 06:35:00,
2013-02-07 01:40:00,60.3,57.9,30.05,NE,45,0.0,0.0,92,0.00,BKN,,0.00,WeatherDisplay:10.37,2013-02-07 06:40:00,
2013-02-07 01:45:00,60.4,58.1,30.05,NE,45,0.0,0.0,92,0.00,BKN,,0.00,WeatherDisplay:10.37,2013-02-07 06:45:00,
2013-02-07 01:50:00,60.4,58.1,30.05,NE,45,0.0,0.0,92,0.00,BKN,,0.00,WeatherDisplay:10.37,2013-02-07 06:50:00,
2013-02-07 01:55:00,60.4,58.1,30.05,NE,45,0.0,0.0,92,0.00,BKN,,0.00,WeatherDisplay:10.37,2013-02-07 06:55:00,
2013-02-07 02:00:00,60.4,58.4,30.06,NE,45,0.0,0.0,93,0.00,BKN,,0.00,WeatherDisplay:10.37,2013-02-07 07:00:00,
2013-02-07 02:05:00,60.4,58.4,30.05,NE,45,0.0,0.0,93,0.00,BKN,,0.00,WeatherDisplay:10.37,2013-02-07 07:05:00,
2013-02-07 02:10:00,60.4,58.4,30.05,NE,45,0.0,0.0,93,0.00,BKN,,0.00,WeatherDisplay:10.37,2013-02-07 07:10:00,
2013-02-07 02:15:00,60.4,58.4,30.05,NE,45,0.0,0.0,93,0.00,BKN,,0.00,WeatherDisplay:10.37,2013-02-07 07:15:00,
2013-02-07 02:20:00,60.4,58.4,30.05,NE,45,0.0,0.0,93,0.00,BKN,,0.00,WeatherDisplay:10.37,2013-02-07 07:20:00,
2013-02-07 02:25:00,60.4,58.4,30.05,NE,45,0.0,0.0,93,0.00,BKN,,0.00,WeatherDisplay:10.37,2013-02-07 07:25:00,
2013-02-07 02:31:00,60.6,58.6,30.05,NE,45,0.0,0.0,93,0.00,BKN,,0.00,WeatherDisplay:10.37,2013-02-07 07:31:00,
2013-02-07 02:35:00,60.6,58.6,30.05,NE,45,0.0,0.0,93,0.00,BKN,,0.00,WeatherDisplay:10.37,2013-02-07 07:35:00,
2013-02-07 02:40:00,60.6,58.6,30.05,NE,45,0.0,0.0,93,0.00,BKN,,0.00,WeatherDisplay:10.37,2013-02-07 07:40:00,
2013-02-07 02:45:00,60.4,58.7,30.05,NE,45,0.0,0.0,94,0.00,BKN,,0.00,WeatherDisplay:10.37,2013-02-07 07:45:00,
2013-02-07 02:50:00,60.4,58.7,30.05,NE,45,0.0,0.0,94,0.00,BKN,,0.00,WeatherDisplay:10.37,2013-02-07 07:50:00,
2013-02-07 02:55:00,60.4,58.7,30.04,NE,45,0.0,0.0,94,0.00,BKN,,0.00,WeatherDisplay:10.37,2013-02-07 07:55:00,
2013-02-07 03:00:00,60.4,58.7,30.04,NE,45,0.0,0.0,94,0.00,BKN,,0.00,WeatherDisplay:10.37,2013-02-07 08:00:00,
2013-02-07 03:05:00,60.3,58.5,30.04,NE,45,0.0,0.0,94,0.00,OVC,,0.00,WeatherDisplay:10.37,2013-02-07 08:05:00,
2013-02-07 03:10:00,60.3,58.5,30.04,NE,45,0.0,0.0,94,0.00,OVC,,0.00,WeatherDisplay:10.37,2013-02-07 08:10:00,
2013-02-07 03:15:00,60.4,58.7,30.04,NE,45,0.0,0.0,94,0.00,OVC,,0.00,WeatherDisplay:10.37,2013-02-07 08:15:00,
2013-02-07 03:20:00,60.4,59.0,30.04,NE,45,0.0,0.0,95,0.00,OVC,,0.00,WeatherDisplay:10.37,2013-02-07 08:20:00,
2013-02-07 03:25:00,60.4,59.0,30.03,NE,45,0.0,0.0,95,0.00,OVC,,0.00,WeatherDisplay:10.37,2013-02-07 08:25:00,
2013-02-07 03:30:00,60.4,59.0,30.03,NE,45,0.0,0.0,95,0.00,OVC,,0.00,WeatherDisplay:10.37,2013-02-07 08:30:00,
2013-02-07 03:35:00,60.4,59.0,30.03,NE,45,0.0,0.0,95,0.00,OVC,,0.00,WeatherDisplay:10.37,2013-02-07 08:35:00,
2013-02-07 03:40:00,60.4,59.0,30.03,NE,45,0.0,0.0,95,0.00,OVC,,0.00,WeatherDisplay:10.37,2013-02-07 08:40:00,
2013-02-07 03:45:00,60.3,58.8,30.03,NE,45,0.0,0.0,95,0.00,OVC,,0.00,WeatherDisplay:10.37,2013-02-07 08:45:00,
2013-02-07 03:50:00,60.4,59.0,30.03,NE,45,0.0,0.0,95,0.00,OVC,,0.00,WeatherDisplay:10.37,2013-02-07 08:50:00,
2013-02-07 03:55:00,60.4,59.0,30.02,NE,45,0.0,0.0,95,0.00,OVC,,0.00,WeatherDisplay:10.37,2013-02-07 08:55:00,
2013-02-07 04:00:00,60.3,58.8,30.02,NE,45,0.0,0.0,95,0.00,OVC,,0.00,WeatherDisplay:10.37,2013-02-07 09:00:00,
2013-02-07 04:05:00,60.3,58.8,30.02,NE,45,0.0,0.0,95,0.00,OVC,,0.00,WeatherDisplay:10.37,2013-02-07 09:05:00,
2013-02-07 04:10:00,60.3,58.8,30.02,NE,45,0.0,0.0,95,0.00,OVC,,0.00,WeatherDisplay:10.37,2013-02-07 09:10:00,
2013-02-07 04:15:00,60.1,58.6,30.03,NE,45,0.0,0.0,95,0.00,OVC,,0.00,WeatherDisplay:10.37,2013-02-07 09:15:00,
2013-02-07 04:20:00,59.9,58.5,30.03,NE,45,0.0,0.0,95,0.00,OVC,,0.00,WeatherDisplay:10.37,2013-02-07 09:20:00,
2013-02-07 04:25:00,59.7,58.3,30.02,NE,45,0.0,0.0,95,0.00,OVC,,0.00,WeatherDisplay:10.37,2013-02-07 09:25:00,
2013-02-07 04:30:00,59.5,58.1,30.02,NE,45,0.0,0.0,95,0.00,OVC,,0.00,WeatherDisplay:10.37,2013-02-07 09:30:00,
2013-02-07 04:35:00,59.4,57.9,30.02,NE,45,0.0,0.0,95,0.00,OVC,,0.00,WeatherDisplay:10.37,2013-02-07 09:35:00,
2013-02-07 04:40:00,59.2,57.7,30.03,NE,45,0.0,0.0,95,0.00,OVC,,0.00,WeatherDisplay:10.37,2013-02-07 09:40:00,
2013-02-07 04:45:00,58.8,57.4,30.03,NE,45,0.0,0.0,95,0.00,OVC,,0.00,WeatherDisplay:10.37,2013-02-07 09:45:00,
2013-02-07 04:50:00,58.6,57.2,30.03,NE,45,0.0,0.0,95,0.00,OVC,,0.00,WeatherDisplay:10.37,2013-02-07 09:50:00,
2013-02-07 04:55:00,58.6,57.2,30.03,NE,45,0.0,0.0,95,0.00,OVC,,0.00,WeatherDisplay:10.37,2013-02-07 09:55:00,
2013-02-07 05:00:00,58.6,57.5,30.03,NE,45,0.0,0.0,96,0.00,OVC,,0.00,WeatherDisplay:10.37,2013-02-07 10:00:00,
2013-02-07 05:05:00,58.6,57.5,30.03,NE,45,0.0,0.0,96,0.00,OVC,,0.00,WeatherDisplay:10.37,2013-02-07 10:05:00,
2013-02-07 05:10:00,58.6,57.5,30.03,NE,45,0.0,0.0,96,0.00,OVC,,0.00,WeatherDisplay:10.37,2013-02-07 10:10:00,
2013-02-07 05:15:00,58.5,57.3,30.03,NE,45,0.0,0.0,96,0.00,OVC,,0.00,WeatherDisplay:10.37,2013-02-07 10:15:00,
2013-02-07 05:20:00,58.6,57.5,30.04,NE,45,0.0,0.0,96,0.00,OVC,,0.00,WeatherDisplay:10.37,2013-02-07 10:20:00,
2013-02-07 05:25:00,58.6,57.5,30.04,NE,45,0.0,0.0,96,0.00,OVC,,0.00,WeatherDisplay:10.37,2013-02-07 10:25:00,
2013-02-07 05:30:00,58.6,57.5,30.04,NE,45,0.0,0.0,96,0.00,OVC,,0.00,WeatherDisplay:10.37,2013-02-07 10:30:00,
2013-02-07 05:35:00,58.3,57.1,30.04,NE,45,0.0,0.0,96,0.00,OVC,,0.00,WeatherDisplay:10.37,2013-02-07 10:35:00,
2013-02-07 05:40:00,58.3,57.1,30.04,NE,45,0.0,0.0,96,0.00,OVC,,0.00,WeatherDisplay:10.37,2013-02-07 10:40:00,
2013-02-07 05:45:00,58.3,57.1,30.04,NE,45,0.0,0.0,96,0.00,OVC,,0.00,WeatherDisplay:10.37,2013-02-07 10:45:00,
2013-02-07 05:50:00,58.5,57.3,30.04,NE,45,0.0,0.0,96,0.00,OVC,,0.00,WeatherDisplay:10.37,2013-02-07 10:50:00,
2013-02-07 05:55:00,58.6,57.5,30.04,NE,45,0.0,0.0,96,0.00,OVC,,0.00,WeatherDisplay:10.37,2013-02-07 10:55:00,
2013-02-07 06:00:00,58.6,57.5,30.04,NE,45,0.0,0.0,96,0.00,OVC,,0.00,WeatherDisplay:10.37,2013-02-07 11:00:00,
2013-02-07 06:05:00,58.6,57.5,30.04,NE,45,0.0,0.0,96,0.00,OVC,,0.00,WeatherDisplay:10.37,2013-02-07 11:05:00,
2013-02-07 06:10:00,58.6,57.5,30.04,NE,45,0.0,0.0,96,0.00,OVC,,0.00,WeatherDisplay:10.37,2013-02-07 11:10:00,
2013-02-07 06:15:00,58.6,57.5,30.04,NE,45,0.0,0.0,96,0.00,OVC,,0.00,WeatherDisplay:10.37,2013-02-07 11:15:00,
2013-02-07 06:20:00,58.6,57.5,30.04,NE,45,0.0,0.0,96,0.00,OVC,,0.00,WeatherDisplay:10.37,2013-02-07 11:20:00,
2013-02-07 06:25:00,58.6,57.5,30.04,NE,45,0.0,0.0,96,0.00,OVC,,0.00,WeatherDisplay:10.37,2013-02-07 11:25:00,
2013-02-07 06:30:00,58.5,57.3,30.04,NE,45,0.0,0.0,96,0.00,OVC,,0.00,WeatherDisplay:10.37,2013-02-07 11:30:00,
2013-02-07 06:35:00,58.3,57.1,30.04,NE,45,0.0,0.0,96,0.00,OVC,,0.00,WeatherDisplay:10.37,2013-02-07 11:35:00,
2013-02-07 06:40:00,58.1,57.0,30.03,NE,45,0.0,0.0,96,0.00,OVC,,0.00,WeatherDisplay:10.37,2013-02-07 11:40:00,
2013-02-07 06:45:00,57.9,56.8,30.03,NE,45,0.0,0.0,96,0.00,OVC,,0.00,WeatherDisplay:10.37,2013-02-07 11:45:00,
2013-02-07 06:50:00,57.7,56.6,30.03,NE,45,0.0,0.0,96,0.00,OVC,,0.00,WeatherDisplay:10.37,2013-02-07 11:50:00,
2013-02-07 06:55:00,57.7,56.6,30.02,NE,45,0.0,0.0,96,0.00,OVC,,0.00,WeatherDisplay:10.37,2013-02-07 11:55:00,
2013-02-07 07:00:00,57.6,56.4,30.02,NE,45,0.0,0.0,96,0.00,OVC,,0.00,WeatherDisplay:10.37,2013-02-07 12:00:00,
2013-02-07 07:05:00,57.6,56.4,30.02,NE,45,0.0,0.0,96,0.00,OVC,,0.00,WeatherDisplay:10.37,2013-02-07 12:05:00,
2013-02-07 07:10:00,57.7,56.6,30.02,NE,45,0.0,0.0,96,0.00,BKN,,0.00,WeatherDisplay:10.37,2013-02-07 12:10:00,
2013-02-07 07:15:00,57.7,56.6,30.02,NE,45,0.0,0.0,96,0.00,BKN,,0.00,WeatherDisplay:10.37,2013-02-07 12:15:00,
2013-02-07 07:20:00,57.7,56.6,30.02,NE,45,0.0,0.0,96,0.00,BKN,,0.00,WeatherDisplay:10.37,2013-02-07 12:20:00,
2013-02-07 07:25:00,57.7,56.6,30.02,NE,45,0.0,0.0,96,0.00,BKN,,0.00,WeatherDisplay:10.37,2013-02-07 12:25:00,
2013-02-07 07:30:00,57.7,56.6,30.02,NE,45,0.0,0.0,96,0.00,BKN,,0.00,WeatherDisplay:10.37,2013-02-07 12:30:00,
2013-02-07 07:35:00,57.7,56.6,30.02,NE,45,0.0,0.0,96,0.00,BKN,,0.00,WeatherDisplay:10.37,2013-02-07 12:35:00,
2013-02-07 07:40:00,57.9,56.8,30.02,NE,45,0.0,0.0,96,0.00,BKN,,0.00,WeatherDisplay:10.37,2013-02-07 12:40:00,
2013-02-07 07:45:00,58.1,57.0,30.02,NE,45,0.0,0.0,96,0.00,BKN,,0.00,WeatherDisplay:10.37,2013-02-07 12:45:00,
2013-02-07 07:50:00,58.6,57.5,30.02,NE,45,0.0,0.0,96,0.00,BKN,,0.00,WeatherDisplay:10.37,2013-02-07 12:50:00,
2013-02-07 07:55:00,58.8,58.0,30.02,NE,45,0.0,0.0,97,0.00,BKN,,0.00,WeatherDisplay:10.37,2013-02-07 12:55:00,
2013-02-07 08:00:00,59.2,58.3,30.02,NE,45,0.0,0.0,97,0.00,BKN,,0.00,WeatherDisplay:10.37,2013-02-07 13:00:00,
2013-02-07 08:05:00,59.7,58.9,30.02,NE,45,0.0,0.0,97,0.00,BKN,,0.00,WeatherDisplay:10.37,2013-02-07 13:05:00,
2013-02-07 08:10:00,60.1,59.2,30.02,NE,45,0.0,0.0,97,0.00,BKN,,0.00,WeatherDisplay:10.37,2013-02-07 13:10:00,
2013-02-07 08:15:00,60.4,59.6,30.02,SE,135,0.1,2.3,97,0.00,BKN,,0.00,WeatherDisplay:10.37,2013-02-07 13:15:00,
2013-02-07 08:20:00,61.0,60.1,30.02,SE,135,0.0,0.0,97,0.00,BKN,,0.00,WeatherDisplay:10.37,2013-02-07 13:20:00,
2013-02-07 08:25:00,61.5,60.7,30.02,SE,135,0.0,0.0,97,0.00,BKN,,0.00,WeatherDisplay:10.37,2013-02-07 13:25:00,
2013-02-07 08:30:00,61.7,60.8,30.02,SE,135,0.0,0.0,97,0.00,BKN,,0.00,WeatherDisplay:10.37,2013-02-07 13:30:00,
2013-02-07 08:35:00,62.2,61.4,30.02,SE,135,0.0,0.0,97,0.00,BKN,,0.00,WeatherDisplay:10.37,2013-02-07 13:35:00,
2013-02-07 08:40:00,62.8,61.6,30.02,SE,135,0.2,1.4,96,0.00,BKN,,0.00,WeatherDisplay:10.37,2013-02-07 13:40:00,
2013-02-07 08:45:00,63.1,62.0,30.02,East,90,0.0,0.0,96,0.00,BKN,,0.00,WeatherDisplay:10.37,2013-02-07 13:45:00,
2013-02-07 08:50:00,63.5,62.6,30.02,SE,135,0.2,2.3,97,0.00,BKN,,0.00,WeatherDisplay:10.37,2013-02-07 13:50:00,
2013-02-07 08:55:00,63.3,62.5,30.02,SE,135,0.0,0.0,97,0.00,BKN,,0.00,WeatherDisplay:10.37,2013-02-07 13:55:00,
2013-02-07 09:00:00,63.7,62.8,30.03,SE,135,0.0,0.0,97,0.00,BKN,,0.00,WeatherDisplay:10.37,2013-02-07 14:00:00,
2013-02-07 09:05:00,63.9,63.0,30.02,SE,135,0.0,1.4,97,0.00,BKN,,0.00,WeatherDisplay:10.37,2013-02-07 14:05:00,
2013-02-07 09:10:00,64.0,63.2,30.02,SE,135,0.2,2.3,97,0.00,BKN,,0.00,WeatherDisplay:10.37,2013-02-07 14:10:00,
2013-02-07 09:15:00,64.4,63.5,30.02,SE,135,0.0,0.0,97,0.00,BKN,,0.00,WeatherDisplay:10.37,2013-02-07 14:15:00,
2013-02-07 09:20:00,64.4,63.2,30.02,SE,135,0.4,1.4,96,0.00,BKN,,0.00,WeatherDisplay:10.37,2013-02-07 14:20:00,
2013-02-07 09:25:00,64.9,63.8,30.02,SE,135,0.1,1.1,96,0.00,BKN,,0.00,WeatherDisplay:10.37,2013-02-07 14:25:00,
2013-02-07 09:30:00,65.1,64.0,30.02,SE,135,0.0,0.0,96,0.00,BKN,,0.00,WeatherDisplay:10.37,2013-02-07 14:30:00,
2013-02-07 09:35:00,65.3,63.8,30.02,South,180,0.2,2.8,95,0.00,BKN,,0.00,WeatherDisplay:10.37,2013-02-07 14:35:00,
2013-02-07 09:40:00,65.8,64.4,30.01,South,180,0.0,0.0,95,0.00,BKN,,0.00,WeatherDisplay:10.37,2013-02-07 14:40:00,
2013-02-07 09:45:00,66.0,64.2,30.01,South,180,0.4,2.8,94,0.00,BKN,,0.00,WeatherDisplay:10.37,2013-02-07 14:45:00,
2013-02-07 09:50:00,66.4,64.3,30.01,South,180,0.0,0.0,93,0.00,BKN,,0.00,WeatherDisplay:10.37,2013-02-07 14:50:00,
2013-02-07 09:55:00,66.9,64.8,30.01,South,180,0.2,2.3,93,0.00,BKN,,0.00,WeatherDisplay:10.37,2013-02-07 14:55:00,
2013-02-07 10:00:00,67.1,64.4,30.02,South,180,0.0,0.0,91,0.00,BKN,,0.00,WeatherDisplay:10.37,2013-02-07 15:00:00,
2013-02-07 10:05:00,67.6,64.6,30.02,South,180,0.0,0.0,90,0.00,BKN,,0.00,WeatherDisplay:10.37,2013-02-07 15:05:00,
2013-02-07 10:10:00,68.5,65.2,30.02,South,180,0.1,1.1,89,0.00,BKN,,0.00,WeatherDisplay:10.37,2013-02-07 15:10:00,
2013-02-07 10:15:00,69.1,65.4,30.01,South,180,0.3,2.3,88,0.00,BKN,,0.00,WeatherDisplay:10.37,2013-02-07 15:15:00,
2013-02-07 10:20:00,69.6,65.6,30.01,South,180,0.4,2.3,87,0.00,OVC,,0.00,WeatherDisplay:10.37,2013-02-07 15:20:00,
2013-02-07 10:25:00,70.3,64.9,30.01,West,270,0.5,2.3,83,0.00,OVC,,0.00,WeatherDisplay:10.37,2013-02-07 15:25:00,
2013-02-07 10:30:00,70.5,65.1,30.01,SE,135,0.3,2.3,83,0.00,OVC,,0.00,WeatherDisplay:10.37,2013-02-07 15:30:00,
2013-02-07 10:35:00,71.2,65.1,30.00,East,90,0.2,2.3,81,0.00,OVC,,0.00,WeatherDisplay:10.37,2013-02-07 15:35:00,
2013-02-07 10:40:00,71.8,64.9,30.00,SE,135,0.8,2.3,79,0.00,OVC,,0.00,WeatherDisplay:10.37,2013-02-07 15:40:00,
2013-02-07 10:45:00,72.3,65.4,29.99,SE,135,1.1,5.8,79,0.00,OVC,,0.00,WeatherDisplay:10.37,2013-02-07 15:45:00,
2013-02-07 10:50:00,72.5,65.2,29.99,South,180,0.0,0.0,78,0.00,OVC,,0.00,WeatherDisplay:10.37,2013-02-07 15:50:00,
2013-02-07 10:55:00,72.1,65.3,29.99,East,90,1.0,4.6,79,0.00,OVC,,0.00,WeatherDisplay:10.37,2013-02-07 15:55:00,
2013-02-07 11:00:00,72.1,64.5,29.99,South,180,0.5,2.3,77,0.00,OVC,,0.00,WeatherDisplay:10.37,2013-02-07 16:00:00,
2013-02-07 11:05:00,72.1,64.5,29.99,SE,135,0.4,2.3,77,0.00,BKN,,0.00,WeatherDisplay:10.37,2013-02-07 16:05:00,
2013-02-07 11:10:00,72.1,64.5,29.99,SE,135,1.2,2.8,77,0.00,BKN,,0.00,WeatherDisplay:10.37,2013-02-07 16:10:00,
2013-02-07 11:15:00,72.0,64.4,29.98,South,180,0.3,2.3,77,0.00,BKN,,0.00,WeatherDisplay:10.37,2013-02-07 16:15:00,
2013-02-07 11:20:00,72.0,64.7,29.98,SE,135,0.0,0.0,78,0.00,BKN,,0.00,WeatherDisplay:10.37,2013-02-07 16:20:00,
2013-02-07 11:25:00,72.0,64.7,29.98,SE,135,0.5,2.3,78,0.00,BKN,,0.00,WeatherDisplay:10.37,2013-02-07 16:25:00,
2013-02-07 11:30:00,72.1,64.5,29.97,SE,135,0.0,4.6,77,0.00,BKN,,0.00,WeatherDisplay:10.37,2013-02-07 16:30:00,
2013-02-07 11:35:00,72.5,65.2,29.97,SE,135,0.3,1.4,78,0.00,BKN,,0.00,WeatherDisplay:10.37,2013-02-07 16:35:00,
2013-02-07 11:40:00,72.5,64.9,29.97,NE,45,0.7,2.3,77,0.00,BKN,,0.00,WeatherDisplay:10.37,2013-02-07 16:40:00,
2013-02-07 11:45:00,73.0,65.0,29.96,East,90,0.4,4.6,76,0.00,BKN,,0.00,WeatherDisplay:10.37,2013-02-07 16:45:00,
2013-02-07 11:50:00,73.2,64.8,29.96,South,180,0.3,2.3,75,0.00,BKN,,0.00,WeatherDisplay:10.37,2013-02-07 16:50:00,
2013-02-07 11:55:00,73.9,65.1,29.96,SE,135,1.2,5.8,74,0.00,BKN,,0.00,WeatherDisplay:10.37,2013-02-07 16:55:00,
2013-02-07 12:00:00,74.1,64.5,29.96,East,90,0.7,4.6,72,0.00,BKN,,0.00,WeatherDisplay:10.37,2013-02-07 17:00:00,
2013-02-07 12:05:00,74.1,64.9,29.96,SW,225,2.3,5.8,73,0.00,OVC,,0.00,WeatherDisplay:10.37,2013-02-07 17:05:00,
2013-02-07 12:10:00,74.1,64.9,29.96,East,90,1.2,4.6,73,0.00,OVC,,0.00,WeatherDisplay:10.37,2013-02-07 17:10:00,
2013-02-07 12:15:00,74.5,64.9,29.96,SE,135,0.6,4.6,72,0.00,OVC,,0.00,WeatherDisplay:10.37,2013-02-07 17:15:00,
2013-02-07 12:20:00,74.5,65.3,29.96,SE,135,0.5,2.8,73,0.00,OVC,,0.00,WeatherDisplay:10.37,2013-02-07 17:20:00,
2013-02-07 12:25:00,74.3,64.3,29.95,West,270,0.1,2.3,71,0.00,OVC,,0.00,WeatherDisplay:10.37,2013-02-07 17:25:00,
2013-02-07 12:30:00,74.5,64.9,29.95,SE,135,0.5,5.8,72,0.00,OVC,,0.00,WeatherDisplay:10.37,2013-02-07 17:30:00,
2013-02-07 12:35:00,74.8,65.2,29.95,South,180,0.7,2.3,72,0.00,OVC,,0.00,WeatherDisplay:10.37,2013-02-07 17:35:00,
2013-02-07 12:40:00,75.6,65.9,29.95,West,270,1.6,2.3,72,0.00,OVC,,0.00,WeatherDisplay:10.37,2013-02-07 17:40:00,
2013-02-07 12:45:00,76.1,64.8,29.94,South,180,0.0,4.6,68,0.00,OVC,,0.00,WeatherDisplay:10.37,2013-02-07 17:45:00,
2013-02-07 12:50:00,76.1,64.8,29.94,SE,135,1.2,2.8,68,0.00,OVC,,0.00,WeatherDisplay:10.37,2013-02-07 17:50:00,
2013-02-07 12:55:00,75.9,64.6,29.93,SW,225,1.4,5.8,68,0.00,OVC,,0.00,WeatherDisplay:10.37,2013-02-07 17:55:00,
2013-02-07 13:00:00,76.6,65.3,29.93,SE,135,1.1,2.3,68,0.00,OVC,,0.00,WeatherDisplay:10.37,2013-02-07 18:00:00,
2013-02-07 13:05:00,76.6,64.4,29.92,SW,225,1.7,2.8,66,0.00,BKN,,0.00,WeatherDisplay:10.37,2013-02-07 18:05:00,
2013-02-07 13:10:00,75.9,64.6,29.91,SE,135,1.3,2.8,68,0.00,BKN,,0.00,WeatherDisplay:10.37,2013-02-07 18:10:00,
2013-02-07 13:15:00,75.7,64.4,29.91,South,180,1.4,5.8,68,0.00,BKN,,0.00,WeatherDisplay:10.37,2013-02-07 18:15:00,
2013-02-07 13:20:00,75.9,64.6,29.91,SW,225,0.2,2.8,68,0.00,BKN,,0.00,WeatherDisplay:10.37,2013-02-07 18:20:00,
2013-02-07 13:25:00,76.5,65.1,29.90,SE,135,0.4,4.6,68,0.00,BKN,,0.00,WeatherDisplay:10.37,2013-02-07 18:25:00,
2013-02-07 13:30:00,76.8,65.0,29.90,East,90,1.5,4.6,67,0.00,BKN,,0.00,WeatherDisplay:10.37,2013-02-07 18:30:00,
2013-02-07 13:35:00,76.8,65.0,29.89,SW,225,1.7,6.9,67,0.00,BKN,,0.00,WeatherDisplay:10.37,2013-02-07 18:35:00,
2013-02-07 13:40:00,76.6,64.9,29.89,SW,225,1.0,2.3,67,0.00,BKN,,0.00,WeatherDisplay:10.37,2013-02-07 18:40:00,
2013-02-07 13:45:00,76.3,64.5,29.89,SE,135,0.2,2.3,67,0.00,BKN,,0.00,WeatherDisplay:10.37,2013-02-07 18:45:00,
2013-02-07 13:50:00,76.1,64.8,29.88,East,90,0.2,2.8,68,0.00,BKN,,0.00,WeatherDisplay:10.37,2013-02-07 18:50:00,
2013-02-07 13:55:00,76.3,64.1,29.87,SE,135,1.4,4.6,66,0.00,BKN,,0.00,WeatherDisplay:10.37,2013-02-07 18:55:00,
2013-02-07 14:00:00,76.3,64.1,29.87,SW,225,1.2,2.8,66,0.00,BKN,,0.00,WeatherDisplay:10.37,2013-02-07 19:00:00,
2013-02-07 14:05:00,76.6,64.0,29.87,East,90,1.7,2.8,65,0.00,BKN,,0.00,WeatherDisplay:10.37,2013-02-07 19:05:00,
2013-02-07 14:10:00,77.2,64.5,29.87,West,270,0.6,2.3,65,0.00,BKN,,0.00,WeatherDisplay:10.37,2013-02-07 19:10:00,
2013-02-07 14:15:00,77.2,64.9,29.87,South,180,0.0,0.0,66,0.00,BKN,,0.00,WeatherDisplay:10.37,2013-02-07 19:15:00,
2013-02-07 14:20:00,77.4,64.7,29.87,South,180,1.5,2.8,65,0.00,BKN,,0.00,WeatherDisplay:10.37,2013-02-07 19:20:00,
2013-02-07 14:25:00,76.8,63.7,29.87,SE,135,1.5,2.3,64,0.00,BKN,,0.00,WeatherDisplay:10.37,2013-02-07 19:25:00,
2013-02-07 14:30:00,76.5,62.9,29.87,East,90,0.4,4.6,63,0.00,BKN,,0.00,WeatherDisplay:10.37,2013-02-07 19:30:00,
2013-02-07 14:35:00,75.9,62.9,29.87,SE,135,0.3,2.3,64,0.00,BKN,,0.00,WeatherDisplay:10.37,2013-02-07 19:35:00,
2013-02-07 14:40:00,75.4,62.8,29.88,South,180,1.2,4.6,65,0.00,BKN,,0.00,WeatherDisplay:10.37,2013-02-07 19:40:00,
2013-02-07 14:45:00,75.0,62.5,29.89,SW,225,0.7,4.6,65,0.00,BKN,,0.00,WeatherDisplay:10.37,2013-02-07 19:45:00,
2013-02-07 14:50:00,75.0,62.9,29.89,NE,45,0.0,1.1,66,0.00,BKN,,0.00,WeatherDisplay:10.37,2013-02-07 19:50:00,
2013-02-07 14:55:00,75.0,62.9,29.89,SE,135,0.0,1.1,66,0.00,BKN,,0.00,WeatherDisplay:10.37,2013-02-07 19:55:00,
2013-02-07 15:00:00,74.8,64.0,29.89,SE,135,0.0,0.0,69,0.00,BKN,,0.00,WeatherDisplay:10.37,2013-02-07 20:00:00,
2013-02-07 15:05:00,74.3,64.3,29.89,SE,135,0.0,2.3,71,0.00,OVC,,0.00,WeatherDisplay:10.37,2013-02-07 20:05:00,
2013-02-07 15:10:00,73.2,64.8,29.88,South,180,0.6,2.3,75,0.00,OVC,,0.00,WeatherDisplay:10.37,2013-02-07 20:10:00,
2013-02-07 15:15:00,72.0,65.8,29.86,SE,135,1.0,2.8,81,0.03,RA,,0.03,WeatherDisplay:10.37,2013-02-07 20:15:00,
2013-02-07 15:20:00,70.7,65.3,29.85,SE,135,0.0,1.1,83,0.03,RA,,0.03,WeatherDisplay:10.37,2013-02-07 20:20:00,
2013-02-07 15:25:00,68.9,64.9,29.86,SE,135,0.0,0.0,87,0.05,-RA,,0.05,WeatherDisplay:10.37,2013-02-07 20:25:00,
2013-02-07 15:30:00,68.5,65.2,29.86,SE,135,0.0,0.0,89,0.05,-RA,,0.05,WeatherDisplay:10.37,2013-02-07 20:30:00,
2013-02-07 15:35:00,68.4,65.0,29.86,SE,135,0.0,0.0,89,0.07,-RA,,0.07,WeatherDisplay:10.37,2013-02-07 20:35:00,
2013-02-07 15:39:00,68.2,64.8,29.86,SW,225,0.0,0.0,89,0.07,-RA,,0.07,WeatherDisplay:10.37,2013-02-07 20:39:00,
2013-02-07 15:44:00,68.2,65.1,29.86,SW,225,0.0,0.0,90,0.07,-RA,,0.07,WeatherDisplay:10.37,2013-02-07 20:44:00,
2013-02-07 15:49:00,68.2,65.1,29.85,SW,225,0.0,0.0,90,0.07,-RA,,0.07,WeatherDisplay:10.37,2013-02-07 20:49:00,
2013-02-07 15:54:00,67.6,65.2,29.83,SE,135,1.3,2.8,92,0.09,RA,,0.09,WeatherDisplay:10.37,2013-02-07 20:54:00,
2013-02-07 15:59:00,67.6,65.2,29.82,SE,135,1.2,2.8,92,0.09,RA,,0.09,WeatherDisplay:10.37,2013-02-07 20:59:00,
2013-02-07 16:04:00,67.3,65.2,29.83,SE,135,0.0,5.8,93,0.09,BKN,,0.09,WeatherDisplay:10.37,2013-02-07 21:04:00,
2013-02-07 16:09:00,67.1,64.7,29.85,SW,225,0.0,0.0,92,0.09,BKN,,0.09,WeatherDisplay:10.37,2013-02-07 21:09:00,
2013-02-07 16:14:00,66.9,64.8,29.84,SW,225,0.0,0.0,93,0.06,BKN,,0.09,WeatherDisplay:10.37,2013-02-07 21:14:00,
2013-02-07 16:19:00,66.9,64.8,29.84,SW,225,0.0,0.0,93,0.06,BKN,,0.09,WeatherDisplay:10.37,2013-02-07 21:19:00,
2013-02-07 16:24:00,66.9,64.8,29.84,South,180,0.0,1.1,93,0.04,-RA,,0.09,WeatherDisplay:10.37,2013-02-07 21:24:00,
2013-02-07 16:29:00,66.9,65.1,29.82,SE,135,0.2,2.3,94,0.06,-RA,,0.11,WeatherDisplay:10.37,2013-02-07 21:29:00,
2013-02-07 16:34:00,66.7,65.0,29.82,South,180,0.0,4.6,94,0.04,-RA,,0.11,WeatherDisplay:10.37,2013-02-07 21:34:00,
2013-02-07 16:39:00,66.7,65.0,29.83,West,270,0.0,2.3,94,0.04,-RA,,0.11,WeatherDisplay:10.37,2013-02-07 21:39:00,
2013-02-07 16:44:00,66.7,65.0,29.82,SW,225,0.6,4.6,94,0.04,-RA,,0.11,WeatherDisplay:10.37,2013-02-07 21:44:00,
2013-02-07 16:49:00,66.6,64.8,29.82,South,180,0.6,2.3,94,0.04,-RA,,0.11,WeatherDisplay:10.37,2013-02-07 21:49:00,
2013-02-07 16:54:00,66.4,64.6,29.79,SE,135,1.5,2.8,94,0.02,-RA,,0.11,WeatherDisplay:10.37,2013-02-07 21:54:00,
2013-02-07 16:59:00,66.4,64.6,29.79,South,180,0.3,2.3,94,0.04,-RA,,0.13,WeatherDisplay:10.37,2013-02-07 21:59:00,
2013-02-07 17:04:00,66.4,64.6,29.81,South,180,0.0,1.1,94,0.04,-RA,,0.13,WeatherDisplay:10.37,2013-02-07 22:04:00,
2013-02-07 17:09:00,66.4,64.6,29.82,West,270,0.4,2.8,94,0.04,-RA,,0.13,WeatherDisplay:10.37,2013-02-07 22:09:00,
2013-02-07 17:14:00,66.4,64.6,29.81,SE,135,0.5,2.3,94,0.04,-RA,,0.13,WeatherDisplay:10.37,2013-02-07 22:14:00,
2013-02-07 17:19:00,66.0,64.2,29.82,South,180,0.1,2.3,94,0.04,-RA,,0.13,WeatherDisplay:10.37,2013-02-07 22:19:00,
2013-02-07 17:24:00,66.0,64.2,29.82,South,180,1.2,4.6,94,0.04,-RA,,0.13,WeatherDisplay:10.37,2013-02-07 22:24:00,
2013-02-07 17:29:00,66.0,64.2,29.82,North,0,0.2,1.4,94,0.02,-RA,,0.13,WeatherDisplay:10.37,2013-02-07 22:29:00,
2013-02-07 17:34:00,66.0,64.5,29.81,West,270,1.6,4.6,95,0.04,-RA,,0.15,WeatherDisplay:10.37,2013-02-07 22:34:00,
2013-02-07 17:39:00,66.0,64.5,29.81,SE,135,0.6,2.3,95,0.04,-RA,,0.15,WeatherDisplay:10.37,2013-02-07 22:39:00,
2013-02-07 17:44:00,66.0,64.5,29.82,South,180,0.3,4.6,95,0.04,-RA,,0.15,WeatherDisplay:10.37,2013-02-07 22:44:00,
2013-02-07 17:49:00,66.0,64.2,29.82,South,180,0.1,2.3,94,0.04,-RA,,0.15,WeatherDisplay:10.37,2013-02-07 22:49:00,
2013-02-07 17:54:00,66.2,64.4,29.82,South,180,0.1,1.1,94,0.04,-RA,,0.15,WeatherDisplay:10.37,2013-02-07 22:54:00,
2013-02-07 17:59:00,66.0,64.2,29.83,South,180,0.2,2.3,94,0.02,-RA,,0.15,WeatherDisplay:10.37,2013-02-07 22:59:00,
2013-02-07 18:04:00,66.0,64.2,29.82,South,180,0.2,0.0,94,0.02,-RA,,0.15,WeatherDisplay:10.37,2013-02-07 23:04:00,
2013-02-07 18:09:00,65.8,64.1,29.82,SE,135,0.6,2.8,94,0.02,-RA,,0.15,WeatherDisplay:10.37,2013-02-07 23:09:00,
2013-02-07 18:14:00,65.8,64.4,29.82,South,180,0.5,2.3,95,0.02,-RA,,0.15,WeatherDisplay:10.37,2013-02-07 23:14:00,
2013-02-07 18:19:00,65.5,64.0,29.81,South,180,0.2,2.3,95,0.02,-RA,,0.15,WeatherDisplay:10.37,2013-02-07 23:19:00,
2013-02-07 18:24:00,65.3,63.8,29.81,South,180,0.0,2.3,95,0.02,-RA,,0.15,WeatherDisplay:10.37,2013-02-07 23:24:00,
2013-02-07 18:29:00,65.3,63.8,29.82,South,180,0.0,0.0,95,0.02,-RA,,0.15,WeatherDisplay:10.37,2013-02-07 23:29:00,
2013-02-07 18:34:00,65.3,63.8,29.82,South,180,0.1,2.3,95,0.00,-RA,,0.15,WeatherDisplay:10.37,2013-02-07 23:34:00,
2013-02-07 18:39:00,65.3,63.8,29.82,SW,225,0.2,2.3,95,0.00,-RA,,0.15,WeatherDisplay:10.37,2013-02-07 23:39:00,
2013-02-07 18:44:00,65.3,63.8,29.82,SW,225,0.0,0.0,95,0.00,-RA,,0.15,WeatherDisplay:10.37,2013-02-07 23:44:00,
2013-02-07 18:49:00,65.3,63.8,29.82,SW,225,0.4,1.4,95,0.00,-RA,,0.15,WeatherDisplay:10.37,2013-02-07 23:49:00,
2013-02-07 18:54:00,65.5,64.0,29.82,SW,225,0.3,2.3,95,0.00,-RA,,0.15,WeatherDisplay:10.37,2013-02-07 23:54:00,
2013-02-07 18:59:00,65.5,64.0,29.82,SW,225,0.0,0.0,95,0.00,-RA,,0.15,WeatherDisplay:10.37,2013-02-07 23:59:00,
2013-02-07 19:04:00,65.5,64.0,29.82,SW,225,0.0,0.0,95,0.00,-RA,,0.15,WeatherDisplay:10.37,2013-02-08 00:04:00,
2013-02-07 19:09:00,65.5,64.0,29.82,SW,225,0.0,0.0,95,0.00,-RA,,0.15,WeatherDisplay:10.37,2013-02-08 00:09:00,
2013-02-07 19:14:00,65.5,64.0,29.82,SE,135,0.0,4.6,95,0.00,OVC,,0.15,WeatherDisplay:10.37,2013-02-08 00:14:00,
2013-02-07 19:19:00,65.5,64.0,29.82,SE,135,0.1,0.0,95,0.00,OVC,,0.15,WeatherDisplay:10.37,2013-02-08 00:19:00,
2013-02-07 19:24:00,65.5,64.0,29.81,South,180,1.1,4.6,95,0.00,OVC,,0.15,WeatherDisplay:10.37,2013-02-08 00:24:00,
2013-02-07 19:29:00,65.5,64.0,29.81,SW,225,0.0,0.0,95,0.00,OVC,,0.15,WeatherDisplay:10.37,2013-02-08 00:29:00,
2013-02-07 19:34:00,65.5,64.0,29.81,South,180,0.0,0.0,95,0.00,OVC,,0.15,WeatherDisplay:10.37,2013-02-08 00:34:00,
2013-02-07 19:39:00,65.3,63.8,29.81,SW,225,0.0,1.1,95,0.00,OVC,,0.15,WeatherDisplay:10.37,2013-02-08 00:39:00,
2013-02-07 19:44:00,65.3,63.8,29.81,South,180,0.3,4.2,95,0.00,OVC,,0.15,WeatherDisplay:10.37,2013-02-08 00:44:00,
2013-02-07 19:49:00,65.5,64.0,29.81,South,180,1.0,4.6,95,0.00,OVC,,0.15,WeatherDisplay:10.37,2013-02-08 00:49:00,
2013-02-07 19:54:00,65.5,64.0,29.81,South,180,0.0,1.1,95,0.00,OVC,,0.15,WeatherDisplay:10.37,2013-02-08 00:54:00,
2013-02-07 19:59:00,65.5,64.0,29.81,SE,135,1.4,5.8,95,0.00,OVC,,0.15,WeatherDisplay:10.37,2013-02-08 00:59:00,
2013-02-07 20:04:00,65.5,64.0,29.81,SW,225,0.0,0.0,95,0.00,OVC,,0.15,WeatherDisplay:10.37,2013-02-08 01:04:00,
2013-02-07 20:09:00,65.3,63.8,29.80,East,90,0.3,1.4,95,0.00,OVC,,0.15,WeatherDisplay:10.37,2013-02-08 01:09:00,
2013-02-07 20:14:00,65.3,63.8,29.80,SE,135,0.0,0.0,95,0.00,BKN,,0.15,WeatherDisplay:10.37,2013-02-08 01:14:00,
2013-02-07 20:19:00,65.3,63.8,29.80,South,180,0.4,1.4,95,0.00,BKN,,0.15,WeatherDisplay:10.37,2013-02-08 01:19:00,
2013-02-07 20:24:00,65.3,63.8,29.81,East,90,0.3,2.3,95,0.00,BKN,,0.15,WeatherDisplay:10.37,2013-02-08 01:24:00,
2013-02-07 20:29:00,65.3,63.8,29.81,SE,135,0.0,0.0,95,0.00,BKN,,0.15,WeatherDisplay:10.37,2013-02-08 01:29:00,
2013-02-07 20:34:00,65.5,64.0,29.81,SE,135,0.0,1.1,95,0.00,BKN,,0.15,WeatherDisplay:10.37,2013-02-08 01:34:00,
2013-02-07 20:39:00,65.5,63.7,29.81,East,90,0.0,0.0,94,0.00,BKN,,0.15,WeatherDisplay:10.37,2013-02-08 01:39:00,
2013-02-07 20:44:00,65.3,63.8,29.81,East,90,0.0,1.4,95,0.00,BKN,,0.15,WeatherDisplay:10.37,2013-02-08 01:44:00,
2013-02-07 20:49:00,65.1,63.7,29.81,SE,135,0.0,0.0,95,0.00,BKN,,0.15,WeatherDisplay:10.37,2013-02-08 01:49:00,
2013-02-07 20:54:00,65.1,63.7,29.81,SE,135,0.6,2.3,95,0.00,BKN,,0.15,WeatherDisplay:10.37,2013-02-08 01:54:00,
2013-02-07 20:59:00,65.1,63.7,29.80,South,180,1.2,5.8,95,0.00,BKN,,0.15,WeatherDisplay:10.37,2013-02-08 01:59:00,
2013-02-07 21:04:00,65.3,63.5,29.81,South,180,0.0,1.1,94,0.00,BKN,,0.15,WeatherDisplay:10.37,2013-02-08 02:04:00,
2013-02-07 21:09:00,65.5,63.7,29.81,South,180,0.0,1.4,94,0.00,BKN,,0.15,WeatherDisplay:10.37,2013-02-08 02:09:00,
2013-02-07 21:14:00,65.8,63.8,29.81,SW,225,1.0,4.6,93,0.00,BKN,,0.15,WeatherDisplay:10.37,2013-02-08 02:14:00,
2013-02-07 21:19:00,66.0,63.6,29.81,West,270,1.2,5.8,92,0.00,BKN,,0.15,WeatherDisplay:10.37,2013-02-08 02:19:00,
2013-02-07 21:24:00,66.4,64.0,29.81,SW,225,0.1,2.8,92,0.00,BKN,,0.15,WeatherDisplay:10.37,2013-02-08 02:24:00,
2013-02-07 21:29:00,66.2,63.8,29.81,SW,225,0.0,0.0,92,0.00,BKN,,0.15,WeatherDisplay:10.37,2013-02-08 02:29:00,
2013-02-07 21:34:00,66.2,63.8,29.81,SW,225,0.2,0.0,92,0.00,BKN,,0.15,WeatherDisplay:10.37,2013-02-08 02:34:00,
2013-02-07 21:39:00,66.4,63.7,29.81,SW,225,0.2,2.8,91,0.00,BKN,,0.15,WeatherDisplay:10.37,2013-02-08 02:39:00,
2013-02-07 21:44:00,66.4,63.7,29.81,SW,225,1.0,4.6,91,0.00,BKN,,0.15,WeatherDisplay:10.37,2013-02-08 02:44:00,
2013-02-07 21:49:00,66.7,64.0,29.80,SW,225,1.2,4.6,91,0.00,BKN,,0.15,WeatherDisplay:10.37,2013-02-08 02:49:00,
2013-02-07 21:54:00,67.1,64.1,29.80,SW,225,0.0,2.3,90,0.00,BKN,,0.15,WeatherDisplay:10.37,2013-02-08 02:54:00,
2013-02-07 21:59:00,67.3,64.2,29.80,West,270,0.9,2.3,90,0.00,BKN,,0.15,WeatherDisplay:10.37,2013-02-08 02:59:00,
2013-02-07 22:04:00,67.5,64.4,29.80,SW,225,1.3,4.6,90,0.00,BKN,,0.15,WeatherDisplay:10.37,2013-02-08 03:04:00,
2013-02-07 22:09:00,67.6,64.6,29.80,SW,225,0.9,2.8,90,0.00,BKN,,0.15,WeatherDisplay:10.37,2013-02-08 03:09:00,
2013-02-07 22:14:00,67.6,64.6,29.80,South,180,1.6,4.6,90,0.00,BKN,,0.15,WeatherDisplay:10.37,2013-02-08 03:14:00,
2013-02-07 22:19:00,67.8,64.8,29.80,SW,225,0.6,4.6,90,0.00,BKN,,0.15,WeatherDisplay:10.37,2013-02-08 03:19:00,
2013-02-07 22:24:00,67.8,64.8,29.81,South,180,0.9,4.6,90,0.00,BKN,,0.15,WeatherDisplay:10.37,2013-02-08 03:24:00,
2013-02-07 22:29:00,67.8,64.8,29.81,SW,225,0.5,2.8,90,0.00,BKN,,0.15,WeatherDisplay:10.37,2013-02-08 03:29:00,
2013-02-07 22:34:00,68.0,65.0,29.81,SW,225,1.9,5.8,90,0.00,BKN,,0.15,WeatherDisplay:10.37,2013-02-08 03:34:00,
2013-02-07 22:39:00,68.2,65.1,29.81,SW,225,1.3,5.8,90,0.00,BKN,,0.15,WeatherDisplay:10.37,2013-02-08 03:39:00,
2013-02-07 22:44:00,68.2,65.1,29.81,SW,225,0.6,2.8,90,0.00,OVC,,0.15,WeatherDisplay:10.37,2013-02-08 03:44:00,
2013-02-07 22:49:00,68.2,65.1,29.81,SW,225,1.3,2.8,90,0.00,OVC,,0.15,WeatherDisplay:10.37,2013-02-08 03:49:00,
2013-02-07 22:54:00,68.2,65.1,29.81,SW,225,1.7,4.6,90,0.00,OVC,,0.15,WeatherDisplay:10.37,2013-02-08 03:54:00,
2013-02-07 22:59:00,68.0,65.3,29.81,SW,225,2.4,4.6,91,0.00,OVC,,0.15,WeatherDisplay:10.37,2013-02-08 03:59:00,
2013-02-07 23:04:00,68.0,65.3,29.81,SW,225,1.0,4.2,91,0.00,OVC,,0.15,WeatherDisplay:10.37,2013-02-08 04:04:00,
2013-02-07 23:09:00,68.0,65.3,29.81,SW,225,2.4,5.8,91,0.00,OVC,,0.15,WeatherDisplay:10.37,2013-02-08 04:09:00,
2013-02-07 23:14:00,68.0,65.3,29.81,SW,225,2.4,5.8,91,0.00,OVC,,0.15,WeatherDisplay:10.37,2013-02-08 04:14:00,
2013-02-07 23:19:00,68.2,65.5,29.81,SW,225,2.0,4.6,91,0.00,OVC,,0.15,WeatherDisplay:10.37,2013-02-08 04:19:00,
2013-02-07 23:24:00,68.2,65.5,29.81,SW,225,0.3,2.3,91,0.00,OVC,,0.15,WeatherDisplay:10.37,2013-02-08 04:24:00,
2013-02-07 23:29:00,68.2,65.5,29.81,SW,225,1.1,2.3,91,0.00,OVC,,0.15,WeatherDisplay:10.37,2013-02-08 04:29:00,
2013-02-07 23:34:00,68.2,65.5,29.81,SW,225,0.0,0.0,91,0.00,OVC,,0.15,WeatherDisplay:10.37,2013-02-08 04:34:00,
2013-02-07 23:39:00,68.2,65.5,29.81,SW,225,0.7,2.8,91,0.00,OVC,,0.15,WeatherDisplay:10.37,2013-02-08 04:39:00,
2013-02-07 23:44:00,68.2,65.5,29.81,SW,225,0.3,4.6,91,0.00,OVC,,0.15,WeatherDisplay:10.37,2013-02-08 04:44:00,
2013-02-07 23:49:00,68.2,65.5,29.81,SW,225,0.4,2.8,91,0.00,OVC,,0.15,WeatherDisplay:10.37,2013-02-08 04:49:00,
2013-02-07 23:54:00,68.2,65.8,29.81,SW,225,0.7,2.3,92,0.00,OVC,,0.15,WeatherDisplay:10.37,2013-02-08 04:54:00,
2013-02-07 23:59:00,68.2,65.8,29.81,SW,225,0.1,1.4,92,0.00,OVC,,0.15,WeatherDisplay:10.37,2013-02-08 04:59:00,